Home   Weather   Cape Coral   Past weeks

Flag for USA Past Weather in Cape Coral, Florida, USA — Yesterday and Last 2 Weeks

Now
81 °F

Overcast.


Feels Like: 83 °F
Forecast: 76 / 84 °F
Wind: 8 mph from Northwest

Location: Page Field

Current Time: May 25, 2017 at 7:43:30 pm

Latest Report: May 25, 2017 at 6:53 pm


Visibility: 10 mi

Pressure: 29.90 "Hg

Humidity: 58%

Dew Point: 65 °F

Location of Cape CoralLocation

Past Weather in Cape Coral — Graph

°F

Cape Coral Temperature Yesterday

Maximum temperature yesterday: 88 °F (at 12:53 pm)
Minimum temperature yesterday: 71 °F (at 5:56 pm)
Average temperature yesterday: 81 °F

High & Low Weather Summary for the Past Weeks

 TemperatureHumidityPressure
High96 °F (May 16, 3:53 pm)100% (May 15, 4:53 am)30.12 "Hg (May 15, 4:53 am)
Low68 °F (May 11, 6:53 am)32% (May 16, 2:53 pm)29.74 "Hg (May 24, 5:56 pm)
Average81 °F74%29.95 "Hg
* Reported May 10 5:53 pm — May 25 5:53 pm, Cape Coral. Weather by CustomWeather, © 2017

Note: Actual official high and low records may vary slightly from our data, if they occured in-between our weather recording intervals... More about our weather records

Advertising

Cape Coral Weather History for the Previous 24 Hours

Scroll right to see more
 ConditionsComfort  
Time TempWeatherWind HumidityBarometerVisibility
5:53 pm
Thu, May 25
82 °FOvercast.10 mph56%29.90 "Hg10 mi
4:53 pm82 °FOvercast.10 mph63%29.89 "Hg10 mi
3:53 pm84 °FScattered clouds.9 mph61%29.88 "Hg10 mi
2:53 pm83 °FBroken clouds.13 mph65%29.88 "Hg10 mi
2:08 pm82 °FPartly sunny.14 mph67%29.88 "Hg10 mi
1:53 pm83 °FPartly sunny.14 mph70%29.88 "Hg10 mi
12:53 pm80 °FOvercast.13 mph79%29.90 "Hg10 mi
12:01 pm82 °FBroken clouds.12 mph82%29.88 "Hg10 mi
11:09 am80 °FLight rain. Mostly cloudy.12 mph90%29.89 "Hg8 mi
11:01 am79 °FLight rain. Fog.12 mph94%29.88 "Hg6 mi
10:39 am78 °FLight rain. Mostly cloudy.9 mph90%29.88 "Hg7 mi
9:53 am76 °FLight rain. Mostly cloudy.15 mph91%29.88 "Hg9 mi
9:18 am76 °FLight rain. Fog.14 mph94%29.86 "Hg6 mi
9:05 am76 °FThunderstorms. Fog.14 mph94%29.85 "Hg6 mi
8:35 am80 °FThundershowers. Mostly cloudy.9 mph87%29.82 "Hg8 mi
8:00 am79 °FPartly sunny.5 mph90%29.81 "Hg9 mi
7:53 am79 °FBroken clouds.8 mph90%29.82 "Hg8 mi
7:35 am78 °FThundershowers. Broken clouds.9 mph93%29.81 "Hg8 mi
7:10 am78 °FThundershowers. Mostly cloudy.6 mph93%29.81 "Hg9 mi
6:53 am77 °FLight rain. Fog.10 mph96%29.81 "Hg3 mi
6:42 am79 °FHeavy rain. Fog.9 mph88%29.81 "Hg1 mi
5:53 am80 °FMostly cloudy.7 mph81%29.80 "Hg10 mi
4:53 am79 °FPassing clouds.10 mph82%29.79 "Hg10 mi
3:53 am79 °FPassing clouds.7 mph82%29.79 "Hg10 mi
2:53 am79 °FOvercast.10 mph79%29.81 "Hg10 mi
1:53 am79 °FPassing clouds.12 mph77%29.83 "Hg10 mi
12:53 am79 °FClear.13 mph74%29.84 "Hg10 mi
11:53 pm
Wed, May 24
79 °FClear.9 mph74%29.83 "Hg10 mi
10:53 pm79 °FClear.6 mph82%29.83 "Hg10 mi
9:53 pm78 °FClear.6 mph82%29.78 "Hg10 mi
8:53 pm77 °FPassing clouds.5 mph88%29.77 "Hg9 mi
7:53 pm77 °FPassing clouds.16 mph82%29.79 "Hg10 mi
Weather by CustomWeather, © 2017

See weather overviewHow to use our weather pages